TimeCDT,TemperatureF,Dew PointF,Humidity,Sea Level PressureIn,VisibilityMPH,Wind Direction,Wind SpeedMPH,Gust SpeedMPH,PrecipitationIn,Events,Conditions,WindDirDegrees,DateUTC
1:15 AM,44.6,42.8,93,29.39,10.0,SE,3.5,-,N/A,,Overcast,130,2012-10-19 06:15:00
1:35 AM,44.4,42.8,94,29.39,10.0,ESE,3.5,-,N/A,,Overcast,110,2012-10-19 06:35:00
1:55 AM,44.6,43.0,94,29.39,7.0,ESE,3.5,-,0.01,,Overcast,110,2012-10-19 06:55:00
2:15 AM,44.1,42.4,94,29.40,4.0,Calm,Calm,-,N/A,,Overcast,0,2012-10-19 07:15:00
2:35 AM,43.7,41.9,93,29.40,3.0,Calm,Calm,-,0.04,,Overcast,0,2012-10-19 07:35:00
2:55 AM,43.3,41.9,95,29.40,4.0,Calm,Calm,-,0.06,,Overcast,0,2012-10-19 07:55:00
3:15 AM,43.7,42.1,94,29.40,10.0,Calm,Calm,-,N/A,,Overcast,0,2012-10-19 08:15:00
3:35 AM,44.1,42.4,94,29.41,10.0,Calm,Calm,-,N/A,,Overcast,0,2012-10-19 08:35:00
3:55 AM,44.6,43.0,94,29.41,10.0,Calm,Calm,-,N/A,,Overcast,0,2012-10-19 08:55:00
4:15 AM,44.6,43.0,94,29.41,5.0,ESE,5.8,-,N/A,,Overcast,120,2012-10-19 09:15:00
4:35 AM,44.4,43.0,95,29.41,4.0,ESE,4.6,-,0.02,,Overcast,120,2012-10-19 09:35:00
4:55 AM,44.6,43.2,95,29.42,7.0,Calm,Calm,-,0.02,,Overcast,0,2012-10-19 09:55:00
5:15 AM,44.6,43.2,95,29.42,10.0,ESE,3.5,-,N/A,,Overcast,110,2012-10-19 10:15:00
5:35 AM,44.6,43.0,94,29.43,10.0,Calm,Calm,-,0.01,,Overcast,0,2012-10-19 10:35:00
5:55 AM,44.6,43.0,94,29.43,10.0,Calm,Calm,-,0.01,,Overcast,0,2012-10-19 10:55:00
6:15 AM,44.8,43.2,94,29.44,10.0,Calm,Calm,-,N/A,,Overcast,0,2012-10-19 11:15:00
6:35 AM,44.8,43.2,94,29.44,10.0,Calm,Calm,-,N/A,,Overcast,0,2012-10-19 11:35:00
6:55 AM,44.8,43.2,94,29.44,10.0,Calm,Calm,-,N/A,,Overcast,0,2012-10-19 11:55:00
7:15 AM,44.8,43.2,94,29.45,7.0,Calm,Calm,-,N/A,,Overcast,0,2012-10-19 12:15:00
7:35 AM,44.8,43.3,95,29.45,5.0,NE,3.5,-,N/A,,Overcast,40,2012-10-19 12:35:00
7:55 AM,44.8,43.3,95,29.46,5.0,NNE,4.6,-,N/A,,Overcast,30,2012-10-19 12:55:00
8:15 AM,44.8,43.3,95,29.47,7.0,NNE,4.6,-,N/A,,Overcast,20,2012-10-19 13:15:00
8:35 AM,44.8,43.3,95,29.47,10.0,NNE,4.6,-,N/A,,Overcast,30,2012-10-19 13:35:00
8:55 AM,45.3,43.7,94,29.48,10.0,North,4.6,-,N/A,,Overcast,10,2012-10-19 13:55:00
9:15 AM,45.5,43.5,93,29.48,10.0,North,4.6,-,N/A,,Overcast,10,2012-10-19 14:15:00
9:35 AM,46.2,43.3,90,29.48,10.0,NNE,5.8,-,N/A,,Overcast,20,2012-10-19 14:35:00
9:55 AM,47.3,43.5,87,29.49,10.0,NNE,5.8,-,N/A,,Overcast,20,2012-10-19 14:55:00
10:15 AM,46.8,43.3,88,29.50,10.0,NNE,5.8,-,N/A,,Overcast,20,2012-10-19 15:15:00
10:35 AM,46.4,43.7,90,29.50,7.0,NNE,5.8,-,N/A,,Overcast,20,2012-10-19 15:35:00
10:55 AM,46.0,43.7,92,29.51,5.0,NNE,9.2,-,N/A,,Overcast,30,2012-10-19 15:55:00
11:15 AM,47.8,43.7,86,29.51,10.0,NE,8.1,-,N/A,,Overcast,40,2012-10-19 16:15:00
11:35 AM,48.7,43.3,82,29.51,10.0,ENE,4.6,-,N/A,,Overcast,60,2012-10-19 16:35:00
11:55 AM,46.8,43.0,87,29.52,10.0,North,10.4,-,N/A,,Overcast,360,2012-10-19 16:55:00
12:15 PM,46.2,43.2,89,29.52,10.0,North,9.2,-,N/A,,Overcast,350,2012-10-19 17:15:00
12:35 PM,47.7,44.1,87,29.52,10.0,North,4.6,-,N/A,,Overcast,10,2012-10-19 17:35:00
12:55 PM,50.0,43.9,79,29.52,10.0,NNW,5.8,-,N/A,,Overcast,330,2012-10-19 17:55:00
1:15 PM,46.8,42.1,84,29.53,10.0,North,8.1,-,N/A,,Overcast,360,2012-10-19 18:15:00
1:35 PM,47.7,43.3,85,29.53,10.0,NNW,5.8,-,N/A,,Overcast,330,2012-10-19 18:35:00
1:55 PM,50.4,42.6,75,29.53,10.0,NNW,6.9,-,N/A,,Overcast,330,2012-10-19 18:55:00
2:15 PM,48.2,41.9,79,29.53,10.0,NNW,4.6,-,N/A,,Overcast,340,2012-10-19 19:15:00
2:35 PM,49.8,43.0,77,29.53,10.0,NNW,6.9,-,N/A,,Overcast,340,2012-10-19 19:35:00
2:55 PM,47.5,42.8,84,29.54,10.0,NW,10.4,-,N/A,,Overcast,320,2012-10-19 19:55:00
3:15 PM,47.8,43.0,83,29.55,10.0,NW,8.1,-,N/A,,Overcast,320,2012-10-19 20:15:00
3:35 PM,48.6,43.3,82,29.56,10.0,WNW,8.1,-,N/A,,Overcast,300,2012-10-19 20:35:00
3:55 PM,48.4,42.6,80,29.56,10.0,NW,5.8,-,N/A,,Overcast,310,2012-10-19 20:55:00
4:15 PM,48.7,41.7,77,29.56,10.0,NW,5.8,-,N/A,,Overcast,310,2012-10-19 21:15:00
4:35 PM,48.4,42.1,79,29.57,10.0,WNW,8.1,-,N/A,,Mostly Cloudy,300,2012-10-19 21:35:00
4:55 PM,48.2,42.4,80,29.57,10.0,West,4.6,-,N/A,,Mostly Cloudy,280,2012-10-19 21:55:00
5:15 PM,48.2,42.6,81,29.58,10.0,NW,9.2,-,N/A,,Mostly Cloudy,310,2012-10-19 22:15:00
5:35 PM,47.3,41.0,79,29.59,10.0,WNW,6.9,-,N/A,,Mostly Cloudy,290,2012-10-19 22:35:00
5:55 PM,46.9,42.8,86,29.60,10.0,West,4.6,-,N/A,,Overcast,280,2012-10-19 22:55:00
6:15 PM,45.5,41.2,85,29.60,10.0,WNW,5.8,-,N/A,,Mostly Cloudy,290,2012-10-19 23:15:00
6:35 PM,44.6,40.8,87,29.61,10.0,West,4.6,-,N/A,,Mostly Cloudy,280,2012-10-19 23:35:00
6:55 PM,45.5,41.5,86,29.61,10.0,WNW,4.6,-,N/A,,Overcast,290,2012-10-19 23:55:00
7:15 PM,45.9,41.7,85,29.62,10.0,WNW,6.9,-,N/A,,Overcast,290,2012-10-20 00:15:00
7:35 PM,45.7,41.9,87,29.63,10.0,WNW,4.6,-,N/A,,Overcast,290,2012-10-20 00:35:00
7:55 PM,45.7,41.9,87,29.63,10.0,WNW,5.8,-,N/A,,Overcast,300,2012-10-20 00:55:00
8:15 PM,45.5,42.1,88,29.63,10.0,WNW,5.8,-,N/A,,Overcast,290,2012-10-20 01:15:00
8:35 PM,45.0,41.7,88,29.64,10.0,WNW,6.9,-,N/A,,Overcast,290,2012-10-20 01:35:00
8:55 PM,44.4,41.7,90,29.64,10.0,WNW,4.6,-,N/A,,Overcast,290,2012-10-20 01:55:00
9:15 PM,44.4,41.9,91,29.65,10.0,WNW,4.6,-,N/A,,Overcast,290,2012-10-20 02:15:00
9:35 PM,44.6,41.7,90,29.65,10.0,WNW,4.6,-,N/A,,Overcast,300,2012-10-20 02:35:00
9:55 PM,43.5,41.2,91,29.65,10.0,WNW,4.6,-,N/A,,Mostly Cloudy,290,2012-10-20 02:55:00
10:15 PM,43.7,41.2,91,29.65,10.0,WNW,3.5,-,N/A,,Mostly Cloudy,300,2012-10-20 03:15:00
10:35 PM,43.0,40.5,91,29.65,10.0,WNW,5.8,-,N/A,,Scattered Clouds,290,2012-10-20 03:35:00
10:55 PM,42.8,40.8,93,29.66,10.0,NW,4.6,-,N/A,,Clear,310,2012-10-20 03:55:00
11:15 PM,42.3,40.1,92,29.66,10.0,WNW,4.6,-,N/A,,Clear,300,2012-10-20 04:15:00
11:35 PM,41.4,39.7,94,29.66,10.0,West,3.5,-,N/A,,Clear,280,2012-10-20 04:35:00
11:55 PM,41.2,39.7,95,29.66,10.0,Calm,Calm,-,N/A,,Mostly Cloudy,0,2012-10-20 04:55:00